Weather History for K1V4 - February, 2013

Change the Weather History Date:

Thursday, February 28, 2013

  Actual Average Record
Temperature  
Mean Temperature 38 °F 23 °F  
Max Temperature 44 °F 35 °F 54 °F (2000)
Min Temperature 32 °F 12 °F -30 °F (1920)
Degree Days  
Heating Degree Days 27 42  
Month to date heating degree days 1190 1275  
Since 1 July heating degree days 5478 5724  
Cooling Degree Days 0 0  
Month to date cooling degree days 0  
Year to date cooling degree days 0  
Moisture  
Dew Point 29 °F    
Average Humidity 75    
Maximum Humidity 96    
Minimum Humidity 53    
Precipitation  
Precipitation 0.02 in 0.08 in 0.90 in (1910)
Month to date precipitation 1.38 2.17  
Year to date precipitation 3.38 4.68  
Sea Level Pressure  
Sea Level Pressure 29.58 in    
Wind  
Wind Speed - (North)    
Max Wind Speed -    
Max Gust Speed -    
T = Trace of Precipitation, MM = Missing Value Source: NWS Daily Summary

Daily Weather History Graph

Daily Weather History Graph

Search for Another Location

Airport or City:

Trip Planner

Search our weather history database for the weather conditions in past years. The results will help you decide how hot, cold, wet, or windy it might be!

Date:

Astronomy

Feb. 28, 2013 Rise Set
Actual Time 6:26 AM EST 5:35 PM EST
Civil Twilight 5:57 AM EST 6:04 PM EST
Nautical Twilight 5:23 AM EST 6:37 PM EST
Astronomical Twilight 4:50 AM EST 7:11 PM EST
Moon 9:09 PM EST (2/28) 7:25 AM EST (2/28)
Length of Visible Light 12h 06m
Length of Day
11h 08m
Waning Gibbous, 91% of the Moon is Illuminated
Feb 28
Waning Gibbous
Mar 4
Last Quarter
Mar 11
New
Mar 19
First Quarter
Mar 27
Full

Hourly Weather History & Observations

Time (EST) Temp. Dew Point Humidity Pressure Visibility Wind Dir Wind Speed Gust Speed Precip Events Conditions
12:54 AM 33.1 °F 26.1 °F 75% 29.63 in - North - - 0.01 in   Unknown
1:54 AM 33.1 °F 25.0 °F 72% 29.60 in - North - - N/A   Unknown
2:54 AM 33.1 °F 24.1 °F 70% 29.58 in - North - - N/A   Unknown
3:54 AM 33.1 °F 26.1 °F 75% 29.58 in - North - - N/A   Unknown
4:54 AM 32.0 °F 26.1 °F 79% 29.59 in - North - - N/A   Unknown
5:54 AM 32.0 °F 27.0 °F 82% 29.59 in - North - - N/A   Unknown
6:54 AM 32.0 °F 27.0 °F 82% 29.61 in - North - - N/A   Unknown
7:54 AM 33.1 °F 27.0 °F 78% 29.61 in - North - - N/A   Unknown
8:54 AM 34.0 °F 28.0 °F 79% 29.61 in - North - - N/A   Unknown
9:54 AM 37.0 °F 28.0 °F 70% 29.59 in - North - - N/A   Unknown
10:54 AM 39.0 °F 28.9 °F 67% 29.59 in - North - - N/A   Unknown
11:54 AM 41.0 °F 30.0 °F 65% 29.58 in - North - - N/A   Unknown
12:54 PM 41.0 °F 30.0 °F 65% 29.57 in - North - - N/A   Unknown
1:54 PM 43.0 °F 30.0 °F 60% 29.55 in - North - - N/A   Unknown
2:54 PM 43.0 °F 28.9 °F 58% 29.55 in - North - - N/A   Unknown
3:54 PM 44.1 °F 28.9 °F 55% 29.54 in - North - - N/A   Unknown
4:54 PM 42.1 °F 30.9 °F 65% 29.55 in - North - - N/A   Unknown
5:54 PM 39.9 °F 30.0 °F 68% 29.56 in - North - - N/A   Unknown
6:54 PM 39.0 °F 30.9 °F 73% 29.57 in - North - - N/A   Unknown
7:54 PM 37.0 °F 32.0 °F 82% 29.57 in - North - - 0.01 in   Unknown
8:54 PM 36.0 °F 33.1 °F 89% 29.57 in - North - - N/A   Unknown
9:54 PM 34.0 °F 32.0 °F 92% 29.58 in - North - - N/A   Unknown
10:54 PM 33.1 °F 32.0 °F 96% 29.57 in - North - - N/A   Unknown
11:54 PM 32.0 °F 30.9 °F 96% 29.56 in - North - - N/A   Unknown